Location: Allos
(44.2333°N, 6.6333°E)
Time: 18:31:49
(UTC+00:00)

Cosmos 1606 - Pass Details

Date: 01 December 2020
Orbit: 503 x 527 km, 82.5° (Epoch: 22 January)

Event Time Altitude Azimuth Distance (km) Brightness Sun altitude
Rises 16:47:22 0° 200° (SSW) 2,652 7.0 -9.1°
Reaches altitude 10° 16:49:33 10° 205° (SSW) 1,767 6.1 -9.5°
Maximum altitude 16:53:19 49° 281° (WNW) 687 3.7 -10.1°
Drops below altitude 10° 16:57:07 10° 358° (N) 1,775 5.2 -10.7°
Sets 16:59:19 0° 4° (N) 2,666 6.1 -11.1°
